TimeCDT,TemperatureF,Dew PointF,Humidity,Sea Level PressureIn,VisibilityMPH,Wind Direction,Wind SpeedMPH,Gust SpeedMPH,PrecipitationIn,Events,Conditions,WindDirDegrees,DateUTC
12:54 AM,72.0,66.0,81,30.10,10.0,ESE,5.8,-,N/A,,Clear,110,2013-08-24 05:54:00
1:54 AM,70.0,66.0,87,30.11,10.0,ESE,6.9,-,N/A,,Clear,120,2013-08-24 06:54:00
2:54 AM,70.0,66.0,87,30.12,10.0,ESE,5.8,-,N/A,,Clear,120,2013-08-24 07:54:00
3:54 AM,69.1,64.9,87,30.13,10.0,ESE,6.9,-,N/A,,Clear,110,2013-08-24 08:54:00
4:54 AM,68.0,64.9,90,30.14,10.0,SE,6.9,-,N/A,,Clear,130,2013-08-24 09:54:00
5:54 AM,68.0,64.0,87,30.15,10.0,East,4.6,-,N/A,,Clear,100,2013-08-24 10:54:00
6:54 AM,68.0,64.0,87,30.17,8.0,SE,5.8,-,N/A,,Clear,130,2013-08-24 11:54:00
7:54 AM,70.0,64.9,84,30.18,10.0,SE,6.9,-,N/A,,Clear,140,2013-08-24 12:54:00
8:54 AM,75.9,66.9,74,30.18,10.0,SSE,8.1,-,N/A,,Clear,160,2013-08-24 13:54:00
9:54 AM,81.0,66.9,62,30.19,10.0,South,8.1,-,N/A,,Clear,180,2013-08-24 14:54:00
10:54 AM,84.0,66.9,56,30.19,10.0,South,10.4,-,N/A,,Clear,190,2013-08-24 15:54:00
11:54 AM,84.9,68.0,57,30.19,10.0,South,6.9,-,N/A,,Clear,170,2013-08-24 16:54:00
1:54 PM,87.1,66.9,51,30.16,10.0,SE,6.9,-,N/A,,Scattered Clouds,130,2013-08-24 18:54:00
2:54 PM,89.1,66.9,48,30.15,10.0,SE,6.9,18.4,N/A,,Partly Cloudy,140,2013-08-24 19:54:00
3:54 PM,88.0,68.0,51,30.14,10.0,SE,6.9,-,N/A,,Scattered Clouds,130,2013-08-24 20:54:00
4:54 PM,89.1,68.0,50,30.13,10.0,SE,8.1,-,N/A,,Clear,130,2013-08-24 21:54:00
5:54 PM,88.0,66.9,49,30.12,10.0,SE,10.4,-,N/A,,Clear,130,2013-08-24 22:54:00
6:54 PM,84.9,66.9,55,30.12,10.0,SE,8.1,-,N/A,,Clear,140,2013-08-24 23:54:00
7:54 PM,80.1,66.9,64,30.13,10.0,SE,5.8,-,N/A,,Clear,130,2013-08-25 00:54:00
8:54 PM,77.0,66.9,71,30.13,10.0,SE,6.9,-,N/A,,Clear,130,2013-08-25 01:54:00
9:54 PM,73.9,66.9,79,30.15,10.0,SE,4.6,-,N/A,,Clear,140,2013-08-25 02:54:00
10:54 PM,73.0,66.0,79,30.16,10.0,SSE,5.8,-,N/A,,Clear,150,2013-08-25 03:54:00
11:54 PM,73.9,66.0,76,30.17,10.0,SSE,5.8,-,N/A,,Clear,160,2013-08-25 04:54:00